Wind_Speed
4 5 5 5 5 5 5 5 5 6 6 6 6 6 7 7 7 7 7 7 7 8 8 9 9 10 10 11 11 12 13 14 14 15 15 16 16 17 17 18 18 19 19 19 19 20 20 20 20
3 3 4 4 4 4 4 4 5 5 5 5 5 5 5 5 6 6 7 8 8 8 8 9 9 10 10 11 11 12 12 13 14 15 15 16 17 17 18 18 19 19 19 19 19 20 20 20 19
1 1 2 2 3 3 3 3 4 4 4 3 4 4 4 4 5 6 6 7 7 7 8 8 9 10 10 11 11 12 13 14 14 15 16 17 17 18 18 19 19 19 19 20 20 20 20 20 19
2 1 1 1 1 1 2 2 3 2 2 2 2 3 4 5 5 6 7 7 7 8 8 9 9 10 11 11 12 13 14 14 15 16 16 17 18 18 18 19 19 19 20 20 20 20 20 20 20
3 3 2 2 2 2 2 2 2 1 2 2 2 3 4 5 6 6 7 8 9 8 8 9 10 10 11 12 13 14 15 15 16 17 17 18 18 19 19 20 20 20 20 21 21 21 21 21 21
5 4 4 4 3 3 3 3 2 2 2 2 2 3 6 6 6 6 7 9 10 10 9 10 11 11 12 13 14 15 15 16 17 18 19 19 20 20 21 21 21 22 22 22 22 22 23 23 23
7 7 6 6 5 5 5 4 4 3 3 3 3 3 5 6 6 6 7 9 10 11 11 12 12 13 14 15 16 16 17 18 18 19 20 20 21 22 22 23 23 24 24 24 24 25 25 25 25
10 9 9 8 7 7 7 7 6 6 6 5 5 5 7 8 8 7 8 9 11 12 13 14 15 15 16 17 17 18 19 19 20 21 21 22 23 23 24 24 25 25 26 26 26 26 27 27 27
13 12 11 10 10 10 10 10 10 9 9 8 8 9 9 10 10 10 10 11 12 14 15 15 16 17 18 18 19 20 20 21 22 22 23 24 24 25 26 26 27 27 27 28 28 28 28 28 29
15 15 13 12 12 13 12 12 13 13 12 12 12 12 12 12 12 12 12 13 14 15 16 17 18 19 19 19 20 21 21 22 23 23 24 25 26 26 27 27 28 28 28 29 29 30 30 31 31
18 18 16 15 15 16 15 15 15 15 16 16 15 15 15 15 15 16 16 16 16 16 17 18 19 20 20 21 21 21 22 23 23 24 25 25 26 26 27 28 28 29 29 30 31 31 32 32 33
21 20 19 18 18 18 18 18 17 18 18 19 18 18 18 18 18 18 19 19 19 18 19 20 20 21 21 21 22 22 23 24 24 25 25 26 26 27 27 28 29 30 30 31 32 32 33 34 35
24 23 22 21 21 21 20 20 19 20 20 21 21 21 21 20 20 20 20 21 21 20 19 20 21 21 22 22 23 23 24 25 25 25 25 26 27 27 28 29 30 31 32 32 33 34 34 35 36
26 26 24 24 24 23 22 22 21 23 22 22 23 23 23 23 22 22 21 21 21 21 21 21 21 22 22 23 24 24 25 25 26 26 26 27 28 28 29 30 31 32 33 33 34 35 35 36 36
29 28 27 27 26 25 24 24 24 24 24 23 24 24 25 24 24 23 22 22 22 22 22 22 22 23 23 24 24 25 25 26 27 27 28 29 29 30 31 32 33 33 34 34 35 35 36 36 37
31 30 30 29 28 27 26 26 26 26 25 25 25 25 25 25 24 23 23 23 22 22 23 23 24 24 24 25 25 26 26 27 28 28 29 30 30 31 32 33 34 34 35 35 35 36 36 37 37
33 32 31 31 29 29 28 27 27 26 26 25 25 25 25 25 24 24 23 23 23 23 23 23 24 24 25 25 26 26 27 27 28 29 30 31 32 33 33 34 34 34 35 35 36 36 36 37 38
35 34 33 32 32 31 30 28 28 27 26 25 25 26 26 25 24 23 23 23 23 23 23 23 24 24 24 25 26 27 27 28 29 30 31 32 33 33 34 34 34 34 35 35 36 36 37 37 38
36 35 34 34 34 33 31 30 30 29 27 26 25 26 26 25 24 23 23 23 23 23 23 23 23 24 24 25 26 27 28 29 30 31 32 33 34 34 34 34 35 35 36 36 37 37 38 39 40
36 36 35 35 36 34 32 30 30 30 28 26 25 25 25 24 24 23 23 23 23 23 23 23 23 23 24 26 27 28 29 30 32 33 34 34 35 35 35 35 36 36 37 38 38 39 40 41 43
35 35 35 36 36 36 34 30 29 29 29 27 25 26 25 25 24 24 23 23 23 23 23 23 23 24 25 27 29 30 31 32 34 34 35 35 36 36 37 37 38 38 39 40 41 42 43 43 45
34 34 35 37 38 36 35 32 27 29 28 27 26 25 25 24 24 23 23 23 23 23 23 24 25 26 27 28 30 31 33 34 35 36 36 37 38 39 39 40 40 41 42 43 43 45 46 46 47
35 35 36 38 38 37 34 36 27 28 28 27 26 25 25 24 24 23 23 23 23 24 24 25 26 27 29 30 32 33 34 35 36 37 38 39 40 40 41 42 43 43 44 45 46 47 49 50 51
36 35 36 37 38 37 33 36 29 26 27 27 26 24 24 24 23 23 23 23 24 25 26 27 28 29 31 32 33 35 36 37 38 39 40 41 41 42 43 44 44 45 46 48 49 50 52 53 55
36 35 36 37 37 35 33 35 29 25 26 27 25 24 23 23 23 23 23 24 25 26 27 28 29 31 32 33 35 36 37 39 40 41 42 42 43 43 44 45 46 47 49 50 51 53 54 55 57
35 36 36 36 36 33 32 33 28 25 25 26 25 23 22 23 23 23 24 25 26 27 28 29 31 33 34 35 36 38 39 40 42 42 43 44 44 45 46 47 49 50 51 53 54 55 56 57 59
34 34 33 35 36 35 34 32 28 25 24 25 24 23 23 23 23 24 25 26 27 28 29 31 33 34 36 37 38 40 41 42 43 44 44 45 46 48 49 50 51 52 53 55 56 57 58 59 60
34 33 34 36 36 35 33 30 28 24 23 23 24 24 23 23 24 25 26 27 29 30 31 32 34 36 37 39 40 41 43 44 44 46 47 48 49 50 50 52 53 54 55 56 57 58 60 61 63
33 33 34 35 37 35 33 28 26 25 24 23 23 24 24 24 25 26 28 29 30 31 33 34 36 38 39 41 42 43 44 45 46 47 49 50 50 51 52 53 54 55 57 58 59 61 62 64 65
34 33 33 34 34 33 32 28 25 26 25 25 24 24 25 25 26 28 29 30 32 33 35 36 38 40 41 43 44 45 46 47 48 49 50 51 52 53 54 55 56 57 59 60 61 62 64 65 66
Wind_Direction
87 98 101 104 112 108 110 125 145 159 166 176 187 197 205 208 217 227 234 235 239 244 248 253 257 262 266 270 273 276 278 280 281 282 283 283 284 285 284 284 284 283 281 280 279 279 278 277 277
101 108 108 106 108 107 116 126 133 145 159 174 187 195 204 209 223 235 240 242 245 248 251 255 259 263 267 271 274 276 278 279 280 281 282 283 284 284 284 284 283 282 280 279 277 277 276 275 274
141 133 125 110 107 120 135 139 140 147 160 179 197 208 218 227 238 249 257 257 256 256 258 260 263 266 270 273 274 275 276 277 279 280 281 282 283 283 283 282 281 280 279 278 278 277 276 274 272
199 210 217 184 143 173 178 174 168 164 166 186 215 230 235 243 251 257 263 265 263 262 263 266 268 271 273 274 275 276 276 277 279 280 280 281 282 282 282 281 280 280 279 278 278 277 275 273 271
234 239 250 254 253 247 232 227 219 212 234 247 247 247 243 246 251 258 265 269 270 269 267 270 273 274 276 277 277 278 278 279 279 280 280 281 281 281 281 281 280 279 278 278 277 276 275 273 271
246 251 255 268 272 268 260 262 262 256 261 270 267 258 262 261 259 260 267 271 275 276 276 276 278 279 280 280 281 280 280 280 280 280 280 280 280 280 280 280 280 279 278 278 277 276 274 272 270
247 253 257 264 271 276 275 279 285 288 278 278 282 274 270 271 267 263 267 273 278 281 281 281 281 282 282 282 282 282 281 281 281 280 279 279 279 279 279 279 279 278 278 277 276 276 275 273 270
247 253 257 263 270 276 276 277 278 280 278 279 281 275 271 273 274 271 270 273 278 282 284 284 284 284 284 284 284 284 283 282 282 281 280 279 279 278 278 279 279 278 278 277 277 275 274 272 270
248 251 258 263 267 268 269 272 275 276 278 278 277 274 271 273 276 277 276 276 278 282 284 285 284 285 285 285 285 285 285 284 283 283 282 281 280 280 279 279 279 278 278 277 276 275 274 272 270
250 253 257 263 265 265 267 270 273 276 277 278 277 277 277 277 278 278 279 279 280 282 283 285 286 286 286 286 286 286 286 286 285 284 284 283 282 281 280 280 279 278 278 277 276 275 273 272 271
250 253 256 260 264 265 266 268 270 272 273 276 276 277 278 279 279 280 281 281 281 282 284 285 287 287 287 287 287 287 287 287 286 285 285 284 283 282 281 281 280 279 278 278 277 275 274 273 272
250 253 255 258 262 265 267 268 269 271 272 275 275 276 276 277 278 280 282 282 282 282 284 286 287 287 287 287 288 288 288 287 287 286 285 285 284 283 283 282 281 280 280 279 278 277 275 274 273
250 253 255 257 260 263 266 267 269 270 271 274 276 276 275 275 277 279 281 282 282 283 283 284 285 286 287 287 288 288 288 288 287 286 286 285 285 284 283 283 283 282 282 281 279 278 277 275 274
249 252 254 256 259 261 264 267 268 269 271 273 275 275 275 275 276 278 279 279 280 281 282 282 283 284 285 286 287 288 288 288 287 287 286 286 286 285 284 283 282 282 282 281 280 279 278 277 276
249 251 253 255 257 260 263 265 266 269 271 272 273 273 274 275 276 277 277 277 277 279 280 281 282 283 284 285 286 287 287 287 287 287 287 287 286 286 285 285 284 283 282 282 281 280 278 277 276
249 250 252 254 257 260 263 265 267 268 271 272 272 273 273 274 275 275 275 275 275 276 278 280 282 283 284 285 285 286 286 286 287 287 287 287 287 286 286 285 285 284 283 282 281 280 279 278 277
248 250 252 255 257 260 262 264 267 269 270 271 271 272 271 272 273 273 273 273 274 275 277 279 281 283 284 285 286 287 287 288 289 289 289 289 289 288 288 287 286 285 284 283 282 281 280 278 277
250 250 252 254 257 258 261 263 265 267 268 268 268 269 270 270 271 271 270 271 273 274 276 278 280 282 284 285 286 287 288 289 290 291 291 290 289 289 289 288 287 286 285 284 283 282 281 280 279
251 252 253 255 256 257 258 261 264 266 266 264 264 266 268 268 268 268 268 269 271 272 274 276 279 281 283 285 286 287 288 289 291 291 291 291 290 289 288 288 287 286 285 284 284 283 283 282 281
251 252 254 255 258 258 258 258 261 264 264 263 263 264 265 266 266 266 266 267 268 270 272 275 277 280 283 285 287 288 288 290 291 292 292 291 290 289 288 288 288 288 287 286 285 285 284 284 283
252 253 254 255 257 259 259 257 259 261 262 262 261 262 262 263 263 263 263 264 265 268 271 274 277 281 283 286 288 289 290 292 292 292 292 292 290 289 289 289 288 288 287 287 286 286 285 285 285
253 253 253 254 256 258 260 259 257 261 262 262 261 261 261 260 259 260 260 262 264 267 271 274 278 282 285 287 289 291 292 292 293 293 293 293 292 290 290 289 289 289 289 288 288 288 287 287 287
251 252 253 254 255 257 260 263 257 259 261 261 260 259 260 259 259 259 260 262 265 268 272 275 279 283 286 288 290 291 293 293 293 293 293 293 292 291 290 290 290 289 289 288 288 288 288 288 288
250 250 253 254 256 257 258 262 260 258 259 260 260 259 259 259 258 259 260 263 266 269 273 277 280 284 287 289 291 292 293 293 293 294 293 293 292 291 291 290 290 290 289 289 289 289 289 289 289
249 249 251 254 255 258 257 259 262 259 258 258 259 258 257 257 258 259 262 265 268 271 275 278 281 284 287 290 291 293 293 294 294 294 294 294 293 293 292 291 291 291 291 291 290 291 291 291 291
247 248 249 253 255 256 256 258 260 258 256 257 258 257 256 257 259 262 264 268 271 274 277 280 283 286 288 290 292 293 293 294 294 294 294 294 293 293 293 292 292 292 292 292 292 292 292 292 292
245 247 248 251 253 255 255 258 257 255 254 254 256 257 257 259 262 265 268 271 274 276 279 282 285 287 289 291 292 293 294 294 294 294 294 294 293 293 293 293 293 293 293 293 293 293 293 293 293
244 244 244 248 252 255 256 256 256 252 252 254 256 257 259 262 265 268 271 274 276 278 281 283 286 288 290 292 293 294 295 295 295 295 294 294 294 294 294 293 293 294 294 294 294 294 294 294 294
242 242 244 247 251 254 255 256 256 255 254 254 255 258 261 264 267 271 274 276 279 281 283 285 287 289 291 292 294 295 295 295 295 295 295 295 295 295 295 294 294 294 295 295 295 295 295 295 296
240 240 241 245 250 253 255 254 255 257 257 258 260 262 264 266 269 272 275 278 281 283 285 287 288 290 292 293 294 295 295 295 296 296 296 296 296 295 295 295 295 296 296 296 296 296 297 297 297
Height
5872 5871 5871 5872 5873 5872 5872 5873 5873 5873 5874 5875 5876 5877 5878 5879 5880 5882 5880 5880 5880 5880 5881 5881 5881 5881 5881 5881 5881 5881 5881 5881 5881 5881 5880 5880 5879 5879 5878 5878 5877 5876 5875 5875 5874 5873 5872 5872 5871
5873 5872 5873 5873 5873 5873 5873 5873 5873 5873 5874 5875 5875 5876 5877 5878 5878 5878 5878 5878 5878 5879 5879 5879 5879 5879 5879 5879 5879 5879 5879 5879 5878 5878 5877 5877 5876 5876 5875 5874 5873 5873 5872 5871 5870 5869 5869 5868 5867
5873 5873 5874 5873 5873 5873 5874 5873 5873 5873 5874 5874 5875 5876 5876 5877 5877 5877 5877 5877 5877 5877 5877 5877 5877 5877 5877 5877 5877 5876 5876 5876 5875 5875 5874 5874 5873 5872 5872 5871 5870 5869 5868 5867 5866 5866 5865 5864 5863
5873 5874 5874 5874 5873 5874 5874 5873 5873 5873 5873 5873 5874 5875 5875 5876 5876 5876 5875 5875 5875 5875 5875 5875 5875 5875 5874 5874 5874 5874 5873 5873 5873 5872 5871 5870 5870 5869 5868 5867 5866 5865 5864 5864 5863 5862 5861 5860 5859
5873 5873 5874 5873 5873 5874 5873 5873 5872 5872 5872 5872 5873 5873 5874 5874 5874 5875 5874 5873 5873 5873 5873 5873 5873 5872 5872 5872 5871 5871 5870 5870 5869 5869 5868 5867 5866 5865 5864 5864 5863 5862 5861 5860 5859 5858 5857 5856 5855
5873 5873 5873 5873 5873 5873 5873 5872 5872 5872 5872 5872 5872 5872 5872 5872 5873 5873 5872 5872 5871 5871 5871 5871 5870 5870 5869 5869 5868 5868 5867 5867 5866 5865 5864 5863 5863 5862 5861 5860 5859 5858 5857 5856 5855 5854 5853 5852 5851
5872 5871 5871 5872 5872 5872 5872 5871 5871 5871 5870 5871 5871 5870 5870 5870 5870 5871 5871 5870 5869 5868 5868 5868 5868 5867 5867 5866 5865 5865 5864 5863 5862 5861 5861 5860 5858 5857 5856 5855 5854 5853 5852 5851 5850 5849 5848 5847 5846
5869 5870 5870 5870 5871 5871 5871 5870 5870 5869 5869 5869 5869 5869 5868 5868 5868 5869 5869 5868 5867 5866 5866 5865 5865 5864 5863 5863 5862 5861 5860 5859 5858 5857 5856 5855 5854 5853 5852 5851 5849 5848 5847 5846 5845 5844 5843 5842 5841
5867 5869 5868 5869 5869 5869 5869 5868 5868 5867 5867 5867 5867 5866 5866 5866 5865 5866 5866 5866 5865 5863 5863 5862 5861 5861 5860 5859 5858 5857 5856 5855 5854 5853 5852 5851 5849 5848 5847 5846 5844 5843 5842 5841 5839 5838 5837 5836 5835
5865 5865 5866 5867 5867 5866 5866 5866 5866 5865 5865 5864 5864 5864 5863 5863 5863 5863 5863 5863 5862 5861 5859 5858 5858 5857 5856 5855 5854 5853 5852 5851 5850 5848 5847 5846 5844 5843 5841 5840 5839 5837 5836 5835 5834 5832 5831 5830 5829
5861 5862 5863 5863 5863 5863 5863 5863 5863 5862 5862 5861 5861 5861 5860 5860 5859 5859 5859 5858 5858 5857 5856 5855 5854 5853 5852 5851 5850 5849 5848 5846 5845 5843 5842 5841 5839 5837 5836 5834 5833 5831 5830 5828 5827 5826 5824 5823 5822
5858 5858 5859 5860 5860 5860 5860 5859 5859 5859 5859 5858 5857 5857 5857 5856 5856 5855 5854 5854 5853 5853 5852 5851 5849 5848 5847 5846 5845 5844 5843 5841 5840 5838 5837 5835 5834 5832 5830 5829 5827 5825 5824 5822 5821 5819 5817 5816 5815
5853 5854 5855 5855 5855 5855 5855 5855 5855 5855 5854 5854 5853 5853 5852 5852 5851 5851 5850 5849 5848 5848 5848 5847 5845 5844 5843 5842 5840 5839 5838 5836 5835 5833 5832 5830 5828 5826 5825 5823 5821 5819 5817 5815 5814 5812 5810 5809 5807
5848 5849 5850 5850 5851 5851 5851 5851 5851 5850 5850 5850 5849 5848 5848 5847 5847 5846 5846 5845 5844 5843 5843 5842 5841 5840 5838 5837 5836 5834 5833 5831 5829 5828 5826 5824 5822 5821 5819 5817 5814 5812 5810 5808 5806 5804 5803 5801 5799
5842 5844 5844 5845 5846 5846 5847 5847 5846 5845 5845 5845 5844 5843 5842 5842 5841 5841 5841 5840 5839 5838 5838 5837 5836 5835 5834 5832 5831 5829 5827 5826 5824 5822 5820 5818 5816 5814 5812 5810 5808 5806 5803 5801 5799 5797 5795 5793 5791
5836 5838 5839 5839 5841 5841 5843 5842 5841 5840 5840 5840 5839 5838 5837 5837 5836 5836 5835 5835 5834 5833 5832 5832 5831 5830 5828 5827 5825 5824 5822 5820 5818 5816 5814 5812 5810 5807 5805 5803 5800 5798 5796 5794 5791 5789 5787 5785 5783
5830 5832 5832 5834 5835 5835 5836 5836 5835 5835 5835 5834 5834 5833 5832 5832 5831 5830 5830 5829 5828 5828 5827 5826 5825 5824 5822 5821 5819 5818 5816 5814 5812 5810 5807 5805 5802 5800 5797 5795 5793 5790 5788 5785 5783 5781 5779 5777 5775
5824 5825 5826 5827 5828 5829 5829 5830 5829 5829 5829 5829 5828 5827 5827 5826 5825 5825 5824 5823 5823 5822 5821 5820 5819 5818 5817 5815 5813 5812 5810 5808 5805 5803 5800 5798 5795 5792 5790 5787 5785 5782 5780 5777 5775 5772 5770 5768 5766
5816 5818 5820 5820 5820 5822 5823 5824 5823 5822 5823 5823 5822 5821 5821 5820 5820 5819 5818 5818 5817 5817 5816 5815 5814 5813 5811 5810 5808 5806 5804 5801 5799 5796 5793 5791 5788 5785 5782 5779 5777 5774 5771 5768 5766 5764 5761 5758 5756
5809 5811 5813 5813 5813 5815 5816 5817 5816 5816 5816 5817 5817 5816 5815 5814 5814 5813 5813 5812 5812 5811 5810 5809 5808 5807 5805 5804 5802 5800 5797 5795 5792 5789 5786 5783 5780 5777 5774 5771 5768 5765 5763 5760 5757 5754 5752 5749 5745
5802 5804 5805 5805 5805 5806 5808 5811 5811 5810 5810 5810 5810 5809 5809 5808 5808 5807 5807 5806 5806 5805 5804 5804 5802 5801 5799 5797 5795 5793 5790 5787 5785 5782 5778 5775 5772 5769 5766 5763 5760 5757 5754 5750 5747 5744 5742 5739 5735
5795 5796 5797 5797 5798 5799 5800 5802 5805 5803 5803 5803 5803 5803 5802 5802 5801 5801 5801 5800 5800 5799 5798 5797 5796 5794 5792 5790 5788 5785 5783 5780 5777 5774 5770 5767 5763 5760 5757 5754 5750 5747 5744 5741 5737 5734 5730 5728 5724
5787 5788 5789 5789 5790 5792 5793 5793 5799 5797 5796 5796 5796 5796 5796 5795 5795 5795 5794 5794 5794 5793 5792 5791 5789 5788 5785 5783 5780 5778 5775 5772 5769 5765 5762 5758 5755 5751 5748 5744 5741 5737 5734 5730 5727 5723 5719 5715 5712
5778 5780 5781 5781 5782 5785 5788 5785 5790 5791 5790 5789 5790 5790 5789 5789 5789 5788 5788 5788 5787 5786 5785 5784 5782 5780 5778 5775 5773 5770 5766 5763 5760 5756 5753 5749 5745 5742 5738 5734 5730 5727 5723 5719 5715 5711 5707 5703 5699
5771 5773 5773 5774 5774 5777 5779 5778 5783 5784 5783 5783 5783 5783 5783 5782 5782 5782 5782 5781 5781 5780 5778 5777 5775 5772 5770 5767 5764 5761 5758 5754 5751 5747 5743 5739 5735 5732 5728 5724 5720 5716 5712 5707 5703 5699 5694 5689 5685
5763 5765 5767 5768 5768 5770 5771 5772 5777 5777 5776 5776 5777 5777 5777 5776 5776 5776 5775 5775 5774 5772 5771 5769 5767 5764 5761 5758 5755 5752 5748 5745 5741 5737 5733 5729 5725 5721 5717 5713 5708 5704 5699 5695 5690 5686 5681 5676 5671
5755 5757 5760 5760 5760 5762 5764 5766 5769 5770 5770 5770 5770 5770 5770 5770 5770 5769 5768 5768 5766 5765 5763 5761 5758 5756 5753 5749 5746 5742 5739 5735 5731 5727 5723 5719 5714 5710 5706 5701 5697 5692 5687 5682 5677 5672 5667 5661 5656
5748 5750 5751 5751 5752 5754 5757 5760 5762 5763 5764 5764 5764 5764 5764 5764 5763 5762 5761 5760 5759 5757 5755 5752 5750 5747 5743 5740 5736 5733 5729 5725 5720 5716 5712 5708 5703 5698 5694 5689 5684 5679 5674 5668 5663 5658 5652 5646 5640
5741 5743 5744 5745 5746 5748 5749 5755 5755 5756 5757 5757 5757 5757 5757 5757 5756 5755 5754 5752 5750 5748 5746 5743 5740 5737 5734 5730 5726 5722 5718 5714 5709 5705 5700 5696 5691 5686 5681 5676 5671 5666 5660 5654 5649 5643 5637 5630 5624
5732 5735 5737 5739 5740 5741 5743 5749 5748 5748 5748 5749 5750 5750 5750 5750 5749 5747 5746 5744 5742 5740 5737 5734 5731 5727 5724 5720 5716 5711 5707 5703 5698 5693 5688 5683 5678 5673 5668 5663 5657 5651 5645 5639 5633 5627 5621 5614 5607